EST,Max TemperatureF,Mean TemperatureF,Min TemperatureF,Max Dew PointF,MeanDew PointF,Min DewpointF,Max Humidity, Mean Humidity, Min Humidity, Max Sea Level PressureIn, Mean Sea Level PressureIn, Min Sea Level PressureIn, Max VisibilityMiles, Mean VisibilityMiles, Min VisibilityMiles, Max Wind SpeedMPH, Mean Wind SpeedMPH, Max Gust SpeedMPH,PrecipitationIn, CloudCover, Events, WindDirDegrees
2011-11-1,56,43,30,39,34,29,92,70,47,30.36,30.32,30.30,10,10,7,6,1,7,0.00,0,,175
2011-11-2,58,46,33,40,36,31,100,76,51,30.43,30.34,30.21,10,6,0,10,2,17,0.00,3,Fog,70
2011-11-3,55,44,33,42,37,32,100,82,64,30.21,30.08,29.95,10,5,0,6,0,7,0.00,1,Fog,100
2011-11-4,52,44,35,42,29,19,92,61,30,30.35,30.13,29.96,10,9,5,20,9,28,0.00,3,,358
2011-11-5,52,40,27,27,24,17,85,56,26,30.51,30.44,30.35,10,10,10,6,1,8,0.00,0,,73
2011-11-6,54,40,25,34,28,21,82,60,38,30.53,30.44,30.37,10,10,10,14,3,23,0.00,0,,97
2011-11-7,61,45,29,41,34,27,100,73,46,30.40,30.34,30.26,10,7,0,7,1,8,0.00,2,Fog,185
2011-11-8,69,53,36,44,39,36,100,70,39,30.32,30.25,30.17,10,8,0,9,1,13,0.00,0,Fog,160
2011-11-9,64,48,32,43,37,30,96,65,34,30.18,30.10,29.94,10,6,0,20,5,29,0.00,2,Fog,112
2011-11-10,55,47,39,49,39,30,89,74,58,29.95,29.87,29.78,10,9,6,21,7,26,0.10,5,Rain,270
2011-11-11,46,40,34,30,28,25,76,61,45,30.02,29.86,29.75,10,10,10,24,10,31,T,6,,270
2011-11-12,60,44,28,34,30,26,89,61,32,30.08,30.04,29.99,10,10,10,16,3,20,0.00,0,,239
2011-11-13,61,48,34,36,33,30,96,64,32,30.07,29.96,29.85,10,10,7,30,8,38,0.00,1,,119
2011-11-14,60,54,48,52,40,31,86,65,44,29.88,29.80,29.67,10,10,5,22,6,26,0.08,5,Rain,85
2011-11-15,58,53,47,55,50,46,100,89,77,29.95,29.85,29.75,10,5,1,13,2,17,0.11,6,Rain,297
2011-11-16,55,51,47,54,50,25,100,90,80,29.94,29.84,29.75,10,4,1,14,3,20,0.36,8,Rain,325
2011-11-17,47,41,34,29,24,19,70,56,42,30.13,29.98,29.90,10,10,10,17,8,23,0.00,3,,279
2011-11-18,44,36,28,25,21,18,75,56,36,30.41,30.33,30.15,10,10,2,18,7,26,T,2,Snow,277
2011-11-19,49,42,34,24,20,16,56,45,34,30.38,30.28,30.16,10,10,10,25,7,35,0.00,3,,103
2011-11-20,56,49,42,45,35,23,86,62,38,30.15,30.12,30.09,10,10,7,12,2,16,0.01,6,Rain,115
2011-11-21,51,45,39,45,36,31,86,71,56,30.35,30.27,30.15,10,10,7,10,3,12,0.01,7,Rain,330
2011-11-22,49,44,38,45,39,30,96,83,70,30.35,30.19,29.81,10,5,1,24,6,28,1.27,8,Rain,99
2011-11-23,49,43,36,47,41,30,93,78,62,30.12,29.77,29.60,10,8,2,23,8,32,0.70,7,Rain,353
2011-11-24,50,40,30,36,32,27,96,74,52,30.24,30.20,30.13,10,10,7,20,5,25,0.00,0,,274
2011-11-25,62,46,29,39,32,28,96,66,36,30.25,30.20,30.11,10,7,0,14,2,18,0.00,1,Fog,319
2011-11-26,57,44,31,38,34,30,96,69,41,30.25,30.19,30.14,10,10,10,8,1,10,0.00,0,,99
2011-11-27,60,48,35,47,40,33,92,70,47,30.14,30.06,29.99,10,10,10,21,6,29,T,3,Rain,90
2011-11-28,66,60,53,52,49,47,80,69,58,30.09,30.02,29.96,10,10,10,15,7,23,0.00,3,,97
2011-11-29,66,58,49,58,53,41,86,79,71,29.94,29.73,29.53,10,8,2,26,11,37,0.54,7,Rain,113
2011-11-30,49,42,34,40,33,25,85,71,57,30.10,29.73,29.54,10,9,2,23,11,31,0.22,6,Rain,255